SBIRS GEO 3 (USA 282)

导读

SBIRS GEO 3(编号USA 282)是美国天基红外系统(SBIRS)计划下的第三代地球同步轨道导弹预警卫星,于2018年1月20日由阿特拉斯V火箭发射升空。卫星搭载扫描型与凝视型双红外探测器,具备近红外、中红外及可见光多谱段探测能力,主要承担弹道导弹助推段探测跟踪、全球导弹发射监视任务,可为导弹防御系统提供早期预警信息,是美国战略反导体系的核心天基节点,设计服役寿命12年,目前仍在轨稳定运行。

Basic Information
目录编号:
43162
目录名称:
SBIRS GEO 3 (USA 282)
国际标识:
2018-009A
轨道中心:
EARTH
卫星名称:
SBIRS GEO 3 (USA 282)
卫星全名:
--
卫星状态:
在轨 (已飞行3074 天)
发射日期:
2018-01-20 UTC
国别 :
美国 (US)
星等 :
--
Orbit Information
数据来源 国际轨道数据 AOE轨道数据
星历时间 2026-06-20T17:31:41+0800
1天前
查看轨道信息
2026-06-21T16:00:00+0800
2小时前
查看轨道信息
半长轴 42164.728km 42164.588km
偏心率 0.0001981 0.0002157
轨道倾角 2.187° 2.187°
近地点辐角 68.237° 63.944°
升交点赤经 12.293° 12.304°
平近点角 171.593° 153.877°
近地点 35778.238km 35777.356km
远地点 35794.944km 35795.546km
周期 1436.097分钟 1436.090分钟
每日圈数 1.002718 1.002723
Detailed Information
使用方式:
暂无
2D Orbit Map
3D Orbit Map
Orbit Altitude Analysis Chart
Orbit Inclination Analysis Chart
Orbit Comprehensive Analysis Chart
View Comprehensive Chart